{"data":{"norad_id":66717,"epoch":"2026-05-24T15:27:48.235392Z","epoch_age_seconds":116449,"freshness":"FRESH","line1":"1 66717U 25276BD  26144.64430828  .00005044  00000+0  23255-3 0  9993","line2":"2 66717  97.4209 218.8722 0001987  72.4948 287.6505 15.20702790 26115","mean_motion":15.2070279,"eccentricity":0.0001987,"inclination_deg":97.4209,"raan_deg":218.8722,"arg_perigee_deg":72.4948,"mean_anomaly_deg":287.6505,"bstar":0.00023255,"rev_number":2611,"period_min":94.69305964777,"perigee_km":502.3520803861,"apogee_km":505.0869301613,"semimajor_km":6881.8565052737,"source":"CELESTRAK","updated_at":"2026-05-25T13:38:13.348427Z"}}